Regional Weather Roundup
Issued by NWS

Home | Current Version | Previous Version | Graphics & Text | Print | Product List | Glossary On
Versions: 1 2 3 4 5 6 7 8 9 10 11 12 13 14 15 16 17 18 19 20 21 22 23 24 25 26 27 28 29 30 31 32 33 34 35 36 37 38 39 40 41 42 43 44 45 46 47 48 49 50
000
ASUS43 KDMX 091406
RWRIA

WEATHER ROUNDUP FOR IOWA
NATIONAL WEATHER SERVICE DES MOINES IA
800 AM CST FRI DEC 09 2016

NOTE: "FAIR" INDICATES FEW OR NO CLOUDS BELOW 12,000 FEET WITH NO
SIGNIFICANT WEATHER AND/OR OBSTRUCTIONS TO VISIBILITY.

* - THESE STATIONS ARE NOT NWS STATIONS...THUS NOT UNDER NWS
QUALITY CONTROL.  THEY ALSO DO NOT REPORT WEATHER SUCH
AS PRECIPITATION OR FOG.

IAZ001>003-012>014-020>022-031>034-043>046-091500-
   NORTHWEST IOWA

CITY           SKY/WX    TMP DP  RH WIND       PRES   REMARKS
CARROLL *      PTCLDY     5   1  85 W5        30.59S WCI  -4
CHEROKEE *     PTCLDY     3   1  88 CALM      30.58S
DENISON *      PTCLDY     5   3  92 CALM      30.58R
LE MARS *      CLOUDY     3   0  85 CALM      30.61R
ORANGE CITY *  CLOUDY     1   0  92 CALM      30.56R
SHELDON *      PTCLDY     1   0  92 W5        30.55R WCI  -8
SIOUX CITY     CLOUDY     5   0  79 CALM      30.62R
SPENCER        CLEAR      1  -3  83 W12       30.56S WCI -16
STORM LAKE *   CLOUDY     3   0  85 W6        30.56R WCI  -8
$$

IAZ055>058-069>071-079>083-090>094-091500-
   SOUTHWEST IOWA

CITY           SKY/WX    TMP DP  RH WIND       PRES   REMARKS
ATLANTIC *     CLEAR      7   3  85 CALM      30.61S
AUDUBON *      CLOUDY     5   1  85 CALM      30.59R
CLARINDA *     CLEAR      9   7  92 CALM      30.64F
COUNCIL BLFS * CLOUDY     7   5  92 CALM      30.59S
CRESTON *      CLEAR      5   1  85 W3        30.60S
HARLAN  *      CLEAR      5   1  85 CALM      30.63F
LAMONI         CLEAR      7   3  84 NW5       30.60S WCI  -2
RED OAK *      PTCLDY     5   3  92 CALM      30.62F
SHENANDOAH *   PTCLDY     9   7  92 CALM      30.63F
$$

IAZ047>049-059>061-072>074-084-091500-
   CENTRAL IOWA

CITY           SKY/WX    TMP DP  RH WIND       PRES   REMARKS
AMES           PTCLDY     9   7  92 NW6       30.60S WCI  -1
ANKENY *       CLEAR     10   7  85 W7        30.63R WCI   0
BOONE *        PTCLDY     7   3  85 W5        30.57S WCI  -2
CHARITON *     CLEAR      9   5  85 W6        30.60S WCI  -1
DES MOINES     MOCLDY    10   5  80 W6        30.61  WCI   0
GRINNELL*      LGT SNOW  14  11  89 W6        30.58S WCI   5
KNOXVILLE *    CLEAR      9   5  85 W7        30.59S WCI  -3
MARSHALLTOWN   CLEAR     10   7  87 NW7       30.57S WCI  -1
NEWTON *       MOCLDY     9   7  92 W6        30.59R WCI  -1
PELLA *        CLEAR     11   7  85 NW5       30.62R WCI   3
PERRY *          N/A      7   4  91 W7        30.61R WCI  -5
$$

IAZ004>006-015-016-023>025-035-036-091500-
   NORTH CENTRAL IOWA

CITY           SKY/WX    TMP DP  RH WIND       PRES   REMARKS
ALGONA *       CLEAR      7   3  85 NW5       30.55S WCI  -2
CLARION *      PTCLDY    10   7  85 W9        30.57R WCI  -2
ESTHERVILLE    CLEAR      2   0  91 W5        30.55R WCI  -8
FORT DODGE *   PTCLDY     7   0  72 W6        30.59S WCI  -3
MASON CITY     CLEAR      8   4  83 NW7       30.56S WCI  -3
FOREST CITY *    N/A      7   5  92 NW3       30.54S
WEBSTER CITY * CLOUDY     7   5  92 W7        30.56S WCI  -5
IOWA FALLS *     N/A      9   6  87 W6        30.57S WCI  -1
$$

IAZ007>011-017>019-026>030-037>042-050>054-066-091500-
   NORTHEAST IOWA

CITY           SKY/WX    TMP DP  RH WIND       PRES   REMARKS
CEDAR RAPIDS   CLEAR     10   9  95 NW7       30.56S WCI  -1
CHARLES CITY * PTCLDY     9   5  85 W5        30.56R WCI   0
CLINTON *      CLOUDY    16  12  84 W12       30.57R WCI   3
DECORAH *      CLEAR     10   9  92 CALM      30.53R
DUBUQUE        CLEAR     12   9  87 NW8       30.52R WCI   0
MONTICELLO *   CLEAR     14   9  79 NW7       30.56R WCI   4
OELWEIN *      CLEAR      9   7  92 W9        30.56R WCI  -5
WATERLOO       CLEAR      9   4  80 CALM      30.57S
$$

IAZ064-065-067-068-078-091500-
   EAST CENTRAL IOWA

CITY           SKY/WX    TMP DP  RH WIND       PRES   REMARKS
DAVENPORT      CLOUDY    16  12  84 W10       30.57R WCI   4
IOWA CITY      PTCLDY    13   8  81 W3        30.60F
MUSCATINE *    PTCLDY    16  10  79 W10       30.60S WCI   3
QUAD CITIES    CLOUDY    18  10  71 W9        30.58R WCI   7
$$

IAZ062-063-075>077-085>089-095>099-091500-
   SOUTHEAST IOWA

CITY           SKY/WX    TMP DP  RH WIND       PRES   REMARKS
BURLINGTON     CLOUDY    18  11  74 N8        30.59S WCI   8
FAIRFIELD *    CLOUDY    16   7  67 NW9       30.60R WCI   4
FORT MADISON * FLURRIES  19  10  68 NW5       30.60R WCI  13
KEOKUK *       FLURRIES  21  14  73 W7        30.60R WCI  13
OSKALOOSA *    MOCLDY    14  10  85 W7        30.60S WCI   4
CENTERVILLE *    N/A      9   7  92 CALM      30.62R
OTTUMWA        CLOUDY    15   9  76 W8        30.60R WCI   4
WASHINGTON *   CLEAR     14  10  85 W8        30.61R WCI   3
$$

ABBREVIATIONS USED IN REMARKS
   TC - TEMPERATURES IN CELSIUS
  WCI - WIND CHILL INDEX
   HX - HEAT INDEX
  VSB - VISIBILITY
$$





USA.gov is the U.S. government's official web portal to all federal, state and local government web resources and services.